| time (UTC) | temp F | wind direction | speed knots | gust knots | rain 1hr in | rain 24hr in | rain mn in | humidity % | barometer mb |
| 20260504050312 | 63 | 355 | 0.0 | 1.7 | 0.00 | 0.00 | 0.00 | 41 | 1008.4 |
| 20260504045804 | 64 | 355 | 0.0 | 0.9 | 0.00 | 0.00 | 0.00 | 40 | 1008.4 |
| 20260504045301 | 64 | 355 | 0.0 | 0.9 | 0.00 | 0.00 | 0.00 | 40 | 1008.4 |
| 20260504044759 | 65 | 355 | 0.0 | 0.9 | 0.00 | 0.00 | 0.00 | 39 | 1008.3 |
| 20260504044248 | 65 | 355 | 0.0 | 0.9 | 0.00 | 0.00 | 0.00 | 39 | 1008.3 |
| 20260504043745 | 66 | 355 | 0.0 | 0.9 | 0.00 | 0.00 | 0.00 | 38 | 1008.4 |
| 20260504043235 | 66 | 355 | 0.0 | 0.9 | 0.00 | 0.00 | 0.00 | 38 | 1008.3 |
| 20260504042728 | 67 | 355 | 0.0 | 0.9 | 0.00 | 0.00 | 0.00 | 37 | 1008.2 |
| 20260504042215 | 68 | 355 | 0.0 | 1.7 | 0.00 | 0.00 | 0.00 | 36 | 1008.3 |
| 20260504042210 | 68 | 355 | 0.0 | 1.7 | 0.00 | 0.00 | 0.00 | 36 | 1008.1 |
| 20260504041957 | 68 | 355 | 0.0 | 1.7 | 0.00 | 0.00 | 0.00 | 36 | 1008.1 |
| 20260504041201 | 69 | 355 | 0.0 | 2.6 | 0.00 | 0.00 | 0.00 | 35 | 1008.1 |
| 20260504040708 | 69 | 355 | 0.9 | 3.5 | 0.00 | 0.00 | 0.00 | 35 | 1008.0 |
| 20260504040207 | 69 | 351 | 1.7 | 4.3 | 0.00 | 0.00 | 0.00 | 35 | 1008.0 |
| 20260504035703 | 70 | 355 | 1.7 | 4.3 | 0.00 | 0.00 | 0.00 | 35 | 1008.0 |
| 20260504035204 | 70 | 355 | 1.7 | 4.3 | 0.00 | 0.00 | 0.00 | 34 | 1007.9 |
| 20260504034703 | 70 | 355 | 1.7 | 7.0 | 0.00 | 0.00 | 0.00 | 34 | 1007.8 |
| 20260504034200 | 71 | 336 | 1.7 | 7.0 | 0.00 | 0.00 | 0.00 | 33 | 1007.8 |
| 20260504033933 | 71 | 355 | 1.7 | 5.2 | 0.00 | 0.00 | 0.00 | 33 | 1007.8 |
| 20260504033432 | 71 | 355 | 1.7 | 4.3 | 0.00 | 0.00 | 0.00 | 33 | 1007.8 |
| 20260504032659 | 72 | 16 | 1.7 | 7.0 | 0.00 | 0.00 | 0.00 | 32 | 1007.7 |
| 20260504032159 | 72 | 348 | 2.6 | 7.0 | 0.00 | 0.00 | 0.00 | 32 | 1007.5 |
| 20260504031932 | 73 | 0 | 3.5 | 8.7 | 0.00 | 0.00 | 0.00 | 31 | 1007.5 |
| 20260504031204 | 73 | 355 | 2.6 | 8.7 | 0.00 | 0.00 | 0.00 | 31 | 1007.5 |
| 20260504030936 | 74 | 355 | 2.6 | 5.2 | 0.00 | 0.00 | 0.00 | 30 | 1007.4 |
| 20260504030428 | 74 | 355 | 2.6 | 7.8 | 0.00 | 0.00 | 0.00 | 30 | 1007.4 |
| 20260504025721 | 74 | 355 | 3.5 | 8.7 | 0.00 | 0.00 | 0.00 | 29 | 1007.4 |
| 20260504024655 | 76 | 5 | 4.3 | 11.3 | 0.00 | 0.00 | 0.00 | 29 | 1007.3 |
| 20260504024420 | 76 | 345 | 4.3 | 9.6 | 0.00 | 0.00 | 0.00 | 28 | 1007.2 |
| 20260504023947 | 76 | 11 | 4.3 | 11.3 | 0.00 | 0.00 | 0.00 | 28 | 1007.1 |
| 20260504023156 | 77 | 0 | 5.2 | 13.0 | 0.00 | 0.00 | 0.00 | 27 | 1007.2 |
| 20260504022649 | 77 | 355 | 5.2 | 13.0 | 0.00 | 0.00 | 0.00 | 27 | 1007.3 |
| 20260504022142 | 78 | 15 | 4.3 | 12.2 | 0.00 | 0.00 | 0.00 | 27 | 1007.1 |
| 20260504021935 | 79 | 343 | 4.3 | 14.8 | 0.00 | 0.00 | 0.00 | 27 | 1007.2 |
| 20260504021918 | 78 | 0 | 3.5 | 8.7 | 0.00 | 0.00 | 0.00 | 27 | 1007.2 |
| 20260504020624 | 79 | 50 | 4.3 | 14.8 | 0.00 | 0.00 | 0.00 | 26 | 1007.1 |
| 20260504020120 | 79 | 65 | 4.3 | 10.4 | 0.00 | 0.00 | 0.00 | 26 | 1007.1 |
| 20260504015620 | 79 | 19 | 5.2 | 13.9 | 0.00 | 0.00 | 0.00 | 26 | 1007.2 |
| 20260504015117 | 79 | 12 | 7.0 | 13.9 | 0.00 | 0.00 | 0.00 | 26 | 1007.3 |
| 20260504014616 | 79 | 342 | 7.0 | 12.2 | 0.00 | 0.00 | 0.00 | 26 | 1007.1 |
| 20260504014117 | 80 | 5 | 6.1 | 12.2 | 0.00 | 0.00 | 0.00 | 25 | 1007.1 |
| 20260504013614 | 80 | 343 | 4.3 | 10.4 | 0.00 | 0.00 | 0.00 | 25 | 1007.1 |
| 20260504013114 | 81 | 355 | 4.3 | 9.6 | 0.00 | 0.00 | 0.00 | 25 | 1007.2 |
| 20260504012615 | 80 | 15 | 5.2 | 12.2 | 0.00 | 0.00 | 0.00 | 26 | 1007.3 |
| 20260504012114 | 81 | 355 | 5.2 | 12.2 | 0.00 | 0.00 | 0.00 | 25 | 1007.2 |
| 20260504011611 | 81 | 345 | 4.3 | 11.3 | 0.00 | 0.00 | 0.00 | 25 | 1007.4 |
| 20260504011111 | 82 | 55 | 5.2 | 12.2 | 0.00 | 0.00 | 0.00 | 25 | 1007.4 |
| 20260504010619 | 81 | 35 | 5.2 | 12.2 | 0.00 | 0.00 | 0.00 | 25 | 1007.3 |
| 20260504010110 | 82 | 338 | 4.3 | 11.3 | 0.00 | 0.00 | 0.00 | 26 | 1007.3 |
| 20260504005608 | 82 | 24 | 5.2 | 12.2 | 0.00 | 0.00 | 0.00 | 25 | 1007.3 |
| 20260504005109 | 82 | 35 | 7.0 | 12.2 | 0.00 | 0.00 | 0.00 | 25 | 1007.3 |
| 20260504004630 | 83 | 322 | 4.3 | 12.2 | 0.00 | 0.01 | 0.00 | 24 | 1007.2 |
| 20260504004625 | 82 | 355 | 5.2 | 12.2 | 0.00 | 0.00 | 0.00 | 25 | 1007.2 |
| 20260504003608 | 83 | 28 | 4.3 | 12.2 | 0.00 | 0.01 | 0.00 | 25 | 1007.2 |
| 20260504003414 | 83 | 20 | 3.5 | 9.6 | 0.00 | 0.01 | 0.00 | 23 | 1007.3 |
| 20260504003409 | 83 | 64 | 3.5 | 10.4 | 0.00 | 0.01 | 0.00 | 24 | 1007.4 |
| 20260504003406 | 83 | 345 | 4.3 | 9.6 | 0.00 | 0.01 | 0.00 | 24 | 1007.3 |
| 20260504001544 | 83 | 61 | 3.5 | 10.4 | 0.00 | 0.01 | 0.00 | 23 | 1007.3 |
| 20260504001038 | 83 | 338 | 3.5 | 8.7 | 0.00 | 0.01 | 0.00 | 22 | 1007.2 |
| 20260504000531 | 82 | 36 | 4.3 | 9.6 | 0.00 | 0.01 | 0.00 | 23 | 1007.4 |
| 20260504000027 | 82 | 336 | 4.3 | 9.6 | 0.00 | 0.01 | 0.00 | 23 | 1007.4 |
| 20260503235520 | 83 | 5 | 3.5 | 9.6 | 0.00 | 0.01 | 0.00 | 21 | 1007.5 |
| 20260503235018 | 83 | 66 | 3.5 | 10.4 | 0.00 | 0.01 | 0.00 | 22 | 1007.5 |
| 20260503234803 | 83 | 349 | 4.3 | 10.4 | 0.00 | 0.01 | 0.00 | 22 | 1007.7 |
| 20260503234002 | 83 | 17 | 5.2 | 11.3 | 0.00 | 0.01 | 0.00 | 21 | 1007.7 |
| 20260503233456 | 84 | 11 | 4.3 | 11.3 | 0.00 | 0.01 | 0.00 | 21 | 1007.8 |
| 20260503233208 | 84 | 30 | 3.5 | 10.4 | 0.00 | 0.01 | 0.00 | 22 | 1007.8 |
| 20260503232445 | 84 | 5 | 4.3 | 10.4 | 0.00 | 0.01 | 0.00 | 23 | 1007.8 |
| 20260503231938 | 83 | 334 | 4.3 | 10.4 | 0.00 | 0.01 | 0.00 | 22 | 1007.8 |
| 20260503231432 | 83 | 65 | 4.3 | 10.4 | 0.00 | 0.01 | 0.00 | 23 | 1007.9 |
| 20260503231213 | 83 | 301 | 4.3 | 10.4 | 0.00 | 0.01 | 0.00 | 23 | 1008.0 |
| 20260503230706 | 82 | 22 | 5.2 | 12.2 | 0.00 | 0.01 | 0.00 | 24 | 1008.1 |
| 20260503225914 | 82 | 67 | 5.2 | 12.2 | 0.00 | 0.01 | 0.00 | 25 | 1008.2 |
| 20260503225408 | 83 | 319 | 4.3 | 11.3 | 0.00 | 0.01 | 0.00 | 24 | 1008.1 |
| 20260503224902 | 82 | 319 | 4.3 | 11.3 | 0.00 | 0.01 | 0.00 | 24 | 1008.3 |
| 20260503224356 | 82 | 33 | 5.2 | 11.3 | 0.00 | 0.01 | 0.00 | 25 | 1008.4 |
| 20260503224121 | 82 | 355 | 5.2 | 12.2 | 0.00 | 0.01 | 0.00 | 25 | 1008.4 |
| 20260503223616 | 82 | 49 | 6.1 | 13.0 | 0.00 | 0.01 | 0.00 | 26 | 1008.5 |
| 20260503223114 | 82 | 355 | 6.1 | 13.0 | 0.00 | 0.01 | 0.00 | 25 | 1008.4 |
| 20260503222405 | 82 | 355 | 6.1 | 13.0 | 0.00 | 0.01 | 0.00 | 27 | 1008.7 |
| 20260503221858 | 82 | 321 | 6.1 | 13.0 | 0.00 | 0.01 | 0.00 | 26 | 1008.7 |
| 20260503221359 | 82 | 332 | 5.2 | 10.4 | 0.00 | 0.01 | 0.00 | 27 | 1008.7 |
| 20260503220859 | 82 | 330 | 5.2 | 13.9 | 0.00 | 0.01 | 0.00 | 28 | 1008.7 |
| 20260503220613 | 82 | 315 | 5.2 | 13.9 | 0.00 | 0.01 | 0.00 | 27 | 1009.0 |
| 20260503215858 | 82 | 355 | 4.3 | 12.2 | 0.00 | 0.01 | 0.00 | 28 | 1008.9 |
| 20260503215357 | 82 | 5 | 4.3 | 10.4 | 0.00 | 0.01 | 0.00 | 28 | 1009.0 |
| 20260503215111 | 82 | 73 | 3.5 | 8.7 | 0.00 | 0.01 | 0.00 | 27 | 1009.1 |
| 20260503214356 | 82 | 65 | 4.3 | 10.4 | 0.00 | 0.01 | 0.00 | 30 | 1009.1 |
| 20260503214111 | 81 | 0 | 5.2 | 10.4 | 0.00 | 0.01 | 0.00 | 29 | 1009.2 |
| 20260503213609 | 81 | 355 | 5.2 | 10.4 | 0.00 | 0.01 | 0.00 | 30 | 1009.2 |
| 20260503213355 | 81 | 355 | 5.2 | 10.4 | 0.00 | 0.01 | 0.00 | 30 | 1009.2 |
| 20260503212902 | 81 | 44 | 5.2 | 9.6 | 0.00 | 0.01 | 0.00 | 29 | 1009.3 |
| 20260503212346 | 81 | 281 | 5.2 | 11.3 | 0.00 | 0.01 | 0.00 | 30 | 1009.4 |
| 20260503211846 | 81 | 46 | 4.3 | 11.3 | 0.00 | 0.01 | 0.00 | 31 | 1009.4 |
| 20260503211346 | 81 | 327 | 3.5 | 10.4 | 0.00 | 0.01 | 0.00 | 31 | 1009.5 |
| 20260503210847 | 80 | 50 | 3.5 | 10.4 | 0.00 | 0.01 | 0.00 | 32 | 1009.6 |
| 20260503210346 | 80 | 338 | 4.3 | 10.4 | 0.00 | 0.01 | 0.00 | 33 | 1009.6 |
| 20260503205846 | 79 | 331 | 4.3 | 10.4 | 0.00 | 0.01 | 0.00 | 33 | 1009.7 |
| 20260503205346 | 79 | 23 | 3.5 | 9.6 | 0.00 | 0.01 | 0.00 | 33 | 1009.7 |
| 20260503204846 | 79 | 355 | 4.3 | 10.4 | 0.00 | 0.01 | 0.00 | 32 | 1009.8 |
| 20260503204344 | 79 | 315 | 4.3 | 10.4 | 0.00 | 0.01 | 0.00 | 32 | 1009.8 |
| 20260503203843 | 79 | 23 | 3.5 | 7.8 | 0.00 | 0.01 | 0.00 | 34 | 1009.8 |
| 20260503203342 | 79 | 355 | 3.5 | 8.7 | 0.00 | 0.01 | 0.00 | 34 | 1009.9 |
| 20260503202841 | 79 | 334 | 3.5 | 8.7 | 0.00 | 0.01 | 0.00 | 33 | 1009.9 |
| 20260503202340 | 79 | 348 | 2.6 | 8.7 | 0.00 | 0.01 | 0.00 | 34 | 1010.2 |
| 20260503201840 | 79 | 355 | 2.6 | 7.0 | 0.00 | 0.01 | 0.00 | 35 | 1010.2 |
| 20260503201340 | 78 | 75 | 2.6 | 7.0 | 0.00 | 0.01 | 0.00 | 34 | 1010.3 |
| 20260503200841 | 78 | 333 | 2.6 | 7.0 | 0.00 | 0.01 | 0.00 | 34 | 1010.4 |
| 20260503200601 | 77 | 26 | 3.5 | 8.7 | 0.00 | 0.01 | 0.00 | 35 | 1010.5 |
| 20260503195912 | 78 | 314 | 3.5 | 7.0 | 0.00 | 0.01 | 0.00 | 35 | 1010.6 |
| 20260503195907 | 77 | 331 | 3.5 | 8.7 | 0.00 | 0.01 | 0.00 | 35 | 1010.5 |
| 20260503194839 | 78 | 0 | 3.5 | 7.0 | 0.00 | 0.01 | 0.00 | 34 | 1010.7 |
| 20260503194340 | 77 | 80 | 2.6 | 7.0 | 0.00 | 0.01 | 0.00 | 36 | 1010.8 |
| 20260503193837 | 77 | 34 | 1.7 | 7.0 | 0.00 | 0.01 | 0.00 | 37 | 1010.7 |
| 20260503193337 | 76 | 85 | 2.6 | 5.2 | 0.00 | 0.01 | 0.00 | 36 | 1010.9 |
| 20260503193112 | 75 | 67 | 2.6 | 7.0 | 0.00 | 0.01 | 0.00 | 38 | 1010.9 |
| 20260503192348 | 75 | 314 | 1.7 | 6.1 | 0.00 | 0.01 | 0.00 | 37 | 1011.1 |
| 20260503192344 | 75 | 321 | 2.6 | 7.0 | 0.00 | 0.01 | 0.00 | 38 | 1011.0 |
| 20260503191317 | 74 | 0 | 1.7 | 5.2 | 0.00 | 0.01 | 0.00 | 39 | 1011.1 |
| 20260503190811 | 74 | 350 | 2.6 | 7.0 | 0.00 | 0.01 | 0.00 | 37 | 1011.3 |
| 20260503190306 | 74 | 331 | 2.6 | 7.0 | 0.00 | 0.01 | 0.00 | 40 | 1011.3 |
| 20260503185759 | 74 | 348 | 2.6 | 7.8 | 0.00 | 0.01 | 0.00 | 39 | 1011.5 |
| 20260503185519 | 73 | 350 | 2.6 | 7.8 | 0.00 | 0.01 | 0.00 | 40 | 1011.5 |
| 20260503185020 | 73 | 349 | 2.6 | 7.0 | 0.00 | 0.01 | 0.00 | 43 | 1011.6 |
| 20260503184241 | 73 | 5 | 1.7 | 7.0 | 0.00 | 0.01 | 0.00 | 41 | 1011.6 |
| 20260503183735 | 72 | 43 | 2.6 | 5.2 | 0.00 | 0.01 | 0.00 | 42 | 1011.7 |
| 20260503183232 | 72 | 5 | 2.6 | 7.0 | 0.00 | 0.01 | 0.00 | 42 | 1011.8 |
| 20260503182723 | 72 | 294 | 2.6 | 7.0 | 0.00 | 0.01 | 0.00 | 42 | 1011.9 |
| 20260503182217 | 72 | 23 | 1.7 | 5.2 | 0.00 | 0.01 | 0.00 | 43 | 1012.0 |
| 20260503181711 | 71 | 64 | 1.7 | 4.3 | 0.00 | 0.01 | 0.00 | 43 | 1012.0 |
| 20260503181205 | 71 | 76 | 1.7 | 5.2 | 0.00 | 0.01 | 0.00 | 43 | 1012.0 |
| 20260503180659 | 71 | 355 | 2.6 | 5.2 | 0.00 | 0.01 | 0.00 | 43 | 1012.2 |
| 20260503180154 | 70 | 330 | 2.6 | 7.0 | 0.00 | 0.01 | 0.00 | 43 | 1012.1 |
| 20260503175647 | 70 | 50 | 1.7 | 7.0 | 0.00 | 0.01 | 0.00 | 43 | 1012.1 |
| 20260503175142 | 70 | 53 | 0.9 | 4.3 | 0.00 | 0.01 | 0.00 | 45 | 1012.3 |
| 20260503174640 | 69 | 340 | 1.7 | 5.2 | 0.00 | 0.01 | 0.00 | 46 | 1012.2 |
| 20260503174129 | 69 | 10 | 1.7 | 5.2 | 0.00 | 0.01 | 0.00 | 45 | 1012.2 |
| 20260503173623 | 69 | 350 | 1.7 | 7.0 | 0.00 | 0.01 | 0.00 | 44 | 1012.2 |
| 20260503173118 | 68 | 344 | 2.6 | 7.0 | 0.00 | 0.01 | 0.00 | 46 | 1012.2 |
| 20260503172846 | 68 | 15 | 2.6 | 6.1 | 0.00 | 0.01 | 0.00 | 47 | 1012.2 |
| 20260503172340 | 68 | 27 | 1.7 | 6.1 | 0.00 | 0.01 | 0.00 | 47 | 1012.2 |
| 20260503171559 | 67 | 355 | 1.7 | 6.1 | 0.00 | 0.01 | 0.00 | 46 | 1012.2 |
| 20260503171327 | 67 | 345 | 1.7 | 5.2 | 0.00 | 0.01 | 0.00 | 49 | 1012.2 |
| 20260503170825 | 66 | 74 | 1.7 | 3.5 | 0.00 | 0.01 | 0.00 | 49 | 1012.2 |
| 20260503150930 | 54 | 142 | 1.7 | 3.5 | 0.00 | 0.01 | 0.00 | 69 | 1012.8 |
| 20260503150427 | 53 | 136 | 0.9 | 2.6 | 0.00 | 0.01 | 0.00 | 70 | 1012.8 |
| 20260503130745 | 45 | 173 | 0.0 | 0.0 | 0.00 | 0.01 | 0.00 | 84 | 1012.4 |
| 20260503130238 | 45 | 173 | 0.0 | 0.0 | 0.00 | 0.01 | 0.00 | 85 | 1012.3 |
| 20260503120127 | 46 | 173 | 0.0 | 0.0 | 0.00 | 0.01 | 0.00 | 83 | 1012.2 |
| 20260503110112 | 48 | 173 | 0.0 | 1.7 | 0.00 | 0.01 | 0.00 | 75 | 1012.3 |
| 20260503090107 | 53 | 181 | 1.7 | 5.2 | 0.00 | 0.01 | 0.00 | 70 | 1012.3 |
| 20260503081526 | 53 | 139 | 1.7 | 3.5 | 0.00 | 0.01 | 0.00 | 70 | 1012.1 |
| 20260503081019 | 53 | 124 | 1.7 | 5.2 | 0.00 | 0.01 | 0.00 | 69 | 1012.0 |
| 20260503080513 | 53 | 121 | 1.7 | 5.2 | 0.00 | 0.01 | 0.00 | 69 | 1012.1 |
| 20260503072931 | 54 | 146 | 0.0 | 2.6 | 0.00 | 0.01 | 0.00 | 67 | 1012.4 |
| 20260503072718 | 55 | 146 | 0.0 | 0.9 | 0.00 | 0.01 | 0.00 | 66 | 1012.4 |
| 20260503071917 | 55 | 146 | 0.9 | 3.5 | 0.00 | 0.01 | 0.00 | 66 | 1012.4 |
| 20260503071411 | 55 | 146 | 1.7 | 3.5 | 0.00 | 0.01 | 0.00 | 66 | 1012.4 |
| 20260503070905 | 55 | 163 | 1.7 | 3.5 | 0.00 | 0.01 | 0.00 | 66 | 1012.6 |
| 20260503070400 | 55 | 167 | 0.9 | 3.5 | 0.00 | 0.01 | 0.00 | 65 | 1012.4 |
| 20260503060307 | 58 | 186 | 2.6 | 4.3 | 0.00 | 0.01 | 0.01 | 59 | 1012.3 |
| 20260503054807 | 59 | 139 | 0.9 | 3.5 | 0.00 | 0.01 | 0.01 | 59 | 1012.2 |
| 20260503054311 | 59 | 170 | 0.9 | 3.5 | 0.00 | 0.01 | 0.01 | 59 | 1012.2 |
| 20260503053812 | 59 | 171 | 0.9 | 4.3 | 0.00 | 0.01 | 0.01 | 59 | 1012.2 |
| 20260503053307 | 60 | 171 | 1.7 | 4.3 | 0.00 | 0.01 | 0.01 | 58 | 1012.0 |
| 20260503052808 | 60 | 231 | 1.7 | 4.3 | 0.00 | 0.01 | 0.01 | 56 | 1011.9 |
| 20260503052308 | 60 | 292 | 1.7 | 4.3 | 0.00 | 0.01 | 0.01 | 56 | 1011.9 |